This demonstration page uses our WeatherBlox Daily Observations layout. Learn more.

Left ArrowRight Arrow

Hourly Observations for February 26, 2015

Temp ( °F °C ) Dew Point ( °F °C ) Humidity (%) Winds ( mph kmh ) Pressure ( in mb ) Visibility ( mi km ) Precip ( " mm )
12:51 am 00:51 Clear 50 10 31 -0.6 48 48 N 9 15 29.91 1013 10 16 N/A
1:51 am 01:51 Clear 45 7.2 33 0.6 63 63 W 8 13 29.92 1013 10 16 N/A
2:51 am 02:51 Clear 42 5.6 34 1.1 73 73 E 5 7 29.91 1013 10 16 N/A
3:51 am 03:51 Clear 41 5 34 1.1 76 76 ENE 3 6 29.91 1013 10 16 N/A
4:51 am 04:51 Clear 40 4.4 33 0.6 77 77 E 7 11 29.91 1013 10 16 N/A
5:51 am 05:51 Clear 39 3.9 32 undefined 76 76 E 5 7 29.93 1014 10 16 N/A
6:51 am 06:51 Sunny 37 2.8 32 undefined 82 82 SE 6 9 29.95 1014 10 16 N/A
7:51 am 07:51 Sunny 41 5 33 0.6 73 73 SSE 5 7 29.96 1015 10 16 N/A
8:51 am 08:51 Sunny 50 10 29 -1.7 44 44 ESE 13 20 29.94 1014 10 16 N/A
9:51 am 09:51 Sunny 54 12.2 30 -1.1 40 40 ESE 10 17 29.93 1014 10 16 N/A
10:51 am 10:51 Sunny 56 13.3 31 -0.6 39 39 ESE 7 11 29.92 1013 10 16 N/A
11:51 am 11:51 Sunny 61 16.1 32 undefined 34 34 ESE 9 15 29.88 1012 10 16 N/A
12:51 pm 12:51 Sunny 63 17.2 27 -2.8 26 26 SSE 10 17 29.83 1010 10 16 N/A
1:51 pm 13:51 Sunny 65 18.3 25 -3.9 22 22 VRB 5 7 29.78 1009 10 16 N/A
2:51 pm 14:51 Sunny 66 18.9 23 -5 19 19 E 8 13 29.75 1008 10 16 N/A
3:51 pm 15:51 Sunny 68 20 23 -5 18 18 E 7 11 29.71 1006 10 16 N/A
4:51 pm 16:51 Sunny 68 20 23 -5 18 18 NW 6 9 29.70 1006 10 16 N/A
5:51 pm 17:51 Sunny 66 18.9 26 -3.3 22 22 NNW 7 11 29.70 1006 10 16 N/A
6:51 pm 18:51 Clear 60 15.6 31 -0.6 33 33 NW 7 11 29.72 1007 10 16 N/A
7:51 pm 19:51 Clear 59 15 31 -0.6 35 35 NW 9 15 29.74 1007 10 16 N/A
8:51 pm 20:51 Clear 59 15 29 -1.7 32 32 NNW 13 20 29.72 1007 10 16 N/A
9:51 pm 21:51 Clear 58 14.4 24 -4.4 27 27 NNW 6 9 29.72 1007 10 16 N/A
10:51 pm 22:51 Clear 53 11.7 24 -4.4 32 32 WSW 6 9 29.74 1007 10 16 N/A
11:51 pm 23:51 Clear 50 10 23 -5 35 35 NW 6 9 29.74 1007 10 16 N/A

Powered by AerisWeather